User: anonymous   Login
Location: Space Photons Observatory
(33.2428°N, 111.5467°W)
Time: 01:21:45
(UTC-07:00)
Language:

RESURS DK-1 - Orbit

View from above orbital plane
View from above orbital plane
View from above satellite
View from above satellite

Ground track
Ground track

The orbit data is extracted from the following two-line orbital elements,

1 29228U 06021A   15150.11236726  .00000257  00000-0  27322-4 0  9996
2 29228 069.9373 203.0208 0002650 009.9139 076.8930 15.01497471495630
Epoch (UTC): 30 May 2015 02:41:48
Eccentricity: 0.0002650
inclination: 69.9373°
perigee height: 560 km
apogee height: 564 km
right ascension of ascending node: 203.0208°
argument of perigee: 9.9139°
revolutions per day: 15.01497471
mean anomaly at epoch: 76.8930°
orbit number at epoch: 49563

The dashed part of the orbit path shows where the satellite is in the earth's shadow,  

DLR